Vorticity
-0 -1 20 21 33 11 -16 -10 21 1 3 18 16 2 10 6 5 9 3 10 10 7 8 8 6 6 5 6 6 7 6 5 3 3 3 2 7 3 6 9 9 8 10 12
21 11 5 9 23 30 15 27 -15 8 17 -5 16 12 1 10 3 8 14 8 2 10 8 5 5 5 7 6 7 7 5 3 4 3 4 5 3 7 9 8 8 10 13 15
14 17 17 31 -6 -1 13 32 18 -1 -12 11 17 3 8 -2 11 16 -0 8 12 10 7 3 6 7 6 7 6 4 5 5 3 6 3 5 9 9 8 9 11 15 16 14
17 12 2 27 25 32 10 16 23 -22 33 -1 9 20 11 11 9 10 1 8 8 6 7 8 8 8 6 6 5 6 4 4 4 4 7 11 9 8 10 12 16 15 12 9
-18 17 3 31 10 13 1 14 16 35 4 5 9 7 6 8 11 -0 8 9 8 7 7 8 6 6 5 6 7 5 5 2 5 10 9 8 9 11 15 16 14 10 10 12
26 -5 3 3 41 17 33 15 15 4 12 10 13 12 10 8 9 7 4 7 9 8 7 6 7 7 8 6 6 3 3 8 10 8 9 10 12 15 15 11 10 10 12 13
-19 10 19 14 11 23 -10 34 21 22 24 17 11 2 14 16 13 11 9 11 10 8 8 8 9 9 9 5 3 6 9 9 8 9 10 12 15 15 10 8 11 12 12 11
9 -10 17 27 31 -13 13 8 19 13 20 9 14 13 10 11 11 14 15 14 12 11 10 10 9 5 3 5 8 9 9 9 9 11 14 16 14 9 8 11 13 11 12 13
7 7 13 8 7 0 17 29 31 27 19 9 4 8 11 13 14 13 13 11 9 10 8 5 3 4 8 9 9 9 9 10 13 15 16 13 8 8 11 13 12 13 13 11
7 23 4 8 4 6 11 2 -5 -3 3 7 8 12 16 18 16 13 10 10 7 4 2 4 9 9 8 8 8 10 12 14 15 14 10 7 8 12 13 13 13 13 10 10
-4 13 12 8 7 15 6 2 1 7 13 11 14 15 18 16 12 9 6 3 0 5 9 8 7 7 7 8 11 13 14 13 12 9 8 10 12 13 13 15 14 10 10 10
26 34 8 18 16 12 1 1 5 16 19 13 17 24 12 9 4 -1 3 9 9 7 6 5 6 7 8 11 13 13 11 10 9 9 11 13 13 12 15 14 11 11 12 12
-1 20 22 15 -6 -1 5 7 20 19 27 18 8 4 -1 3 11 9 8 7 6 5 4 6 6 7 11 13 12 10 9 10 10 12 14 13 13 15 12 9 14 13 13 13
28 6 12 12 6 19 17 20 11 4 2 -1 11 14 8 8 7 6 5 4 2 5 7 6 8 12 13 12 10 10 11 11 13 14 14 14 14 11 10 12 13 16 14 14
6 7 29 23 22 10 9 14 11 19 18 9 7 6 6 5 5 5 2 1 5 5 5 10 13 12 12 11 11 13 14 14 15 16 16 13 10 11 14 14 14 14 15 16
19 18 33 24 18 18 21 14 14 7 7 6 5 4 5 6 3 2 1 7 3 4 10 13 11 11 12 12 15 16 16 17 18 15 12 11 13 15 15 14 15 14 14 15
18 24 13 18 13 8 9 8 6 6 5 5 6 5 4 3 1 4 7 3 5 10 12 11 12 14 14 15 17 16 17 17 15 11 13 15 14 14 13 14 13 13 12 12
23 17 17 14 6 5 5 4 3 4 6 6 5 3 2 4 6 6 5 7 12 13 11 13 15 14 15 15 16 17 17 13 12 14 15 14 14 13 13 13 13 13 11 10
9 5 3 2 1 2 5 8 9 8 6 4 3 5 7 4 4 5 12 14 11 11 14 15 15 16 14 15 17 16 12 12 15 13 12 12 12 11 11 11 11 10 8 7
1 0 4 7 7 6 6 6 5 4 4 7 7 2 6 2 6 11 11 10 12 15 16 17 17 14 15 17 15 12 12 14 11 10 12 11 10 10 9 7 7 7 8 9
7 6 6 6 6 5 6 6 6 8 11 11 9 3 5 11 13 11 10 14 15 18 17 14 15 17 16 14 12 12 14 10 9 9 9 6 5 7 9 10 9 9 10 11
5 6 2 -3 1 8 10 10 8 5 2 2 5 10 13 10 7 11 16 16 18 15 13 15 17 16 14 12 13 15 11 9 10 11 12 11 10 8 9 11 12 11 12 11
4 2 -3 3 10 7 5 5 3 2 5 9 11 11 9 10 16 19 16 18 13 12 15 18 17 14 12 14 15 11 10 12 11 8 8 9 10 11 12 13 13 12 12 12
5 7 6 8 5 4 4 3 5 9 10 10 12 15 16 17 17 22 18 11 11 15 18 16 14 13 16 14 10 10 10 8 10 11 10 12 14 12 12 12 12 11 12 12
7 7 4 5 3 2 5 9 10 11 15 19 20 20 20 22 21 16 11 12 15 17 14 13 15 15 14 10 11 9 10 11 13 13 12 11 12 12 12 12 12 12 14 16
6 7 6 7 7 11 12 12 19 25 25 22 22 21 18 14 11 11 12 14 16 14 13 14 15 13 10 9 10 12 12 12 14 14 13 12 11 12 12 12 14 15 15 15
6 7 9 12 12 10 20 27 20 18 18 19 20 18 16 15 14 14 14 15 14 14 13 13 10 9 10 12 12 12 12 13 14 12 11 13 12 12 13 13 12 11 10 11
Height
2988 2992 2994 2995 2999 3005 3011 3008 3021 3018 3024 3028 3030 3032 3035 3039 3042 3045 3048 3051 3055 3059 3062 3065 3067 3069 3070 3072 3072 3073 3072 3072 3071 3070 3068 3065 3062 3058 3053 3048 3042 3036 3030 3024
2982 2984 2988 2991 2995 2997 2999 3006 3013 3016 3019 3022 3025 3028 3031 3035 3039 3042 3045 3048 3052 3055 3058 3060 3062 3063 3064 3065 3066 3066 3066 3065 3064 3062 3060 3056 3052 3047 3042 3037 3031 3025 3018 3012
2979 2981 2984 2988 2984 2988 2992 2997 3002 3007 3014 3017 3019 3024 3028 3031 3035 3038 3041 3045 3047 3050 3053 3054 3056 3057 3058 3059 3060 3060 3059 3058 3056 3054 3050 3047 3042 3037 3032 3026 3019 3014 3008 3002
2975 2980 2983 2972 2978 2982 2987 2990 2994 3002 3006 3011 3015 3019 3022 3026 3029 3033 3036 3039 3042 3045 3047 3049 3051 3052 3053 3053 3053 3053 3052 3050 3048 3045 3041 3037 3032 3027 3021 3014 3009 3003 2997 2991
2970 2973 2970 2967 2969 2972 2976 2983 2988 2994 2997 3001 3007 3012 3016 3020 3023 3028 3031 3034 3037 3040 3042 3043 3044 3046 3046 3047 3046 3046 3044 3043 3040 3036 3031 3027 3022 3016 3010 3004 2998 2993 2987 2981
2963 2967 2963 2962 2965 2969 2974 2978 2981 2986 2992 2996 3002 3006 3009 3014 3018 3022 3025 3028 3031 3034 3035 3037 3039 3040 3040 3040 3039 3038 3038 3035 3031 3026 3022 3016 3010 3005 3000 2994 2988 2983 2976 2971
2957 2961 2961 2960 2963 2967 2973 2976 2977 2981 2987 2993 2998 3001 3007 3009 3013 3017 3020 3023 3026 3028 3030 3032 3034 3034 3034 3034 3033 3032 3030 3026 3021 3016 3010 3005 3000 2995 2989 2984 2978 2973 2967 2962
2953 2956 2958 2958 2961 2965 2967 2970 2973 2977 2982 2986 2993 2997 3001 3005 3008 3012 3016 3018 3021 3023 3026 3027 3028 3029 3028 3027 3026 3024 3020 3015 3010 3005 3000 2994 2989 2985 2980 2974 2969 2964 2959 2953
2943 2946 2949 2953 2959 2962 2965 2968 2972 2977 2982 2986 2990 2994 2998 3002 3005 3007 3010 3013 3016 3018 3020 3022 3022 3022 3021 3020 3017 3014 3010 3004 2999 2994 2989 2984 2980 2976 2971 2967 2962 2956 2950 2945
2937 2941 2946 2950 2955 2960 2964 2967 2971 2976 2980 2983 2987 2990 2993 2996 3000 3004 3007 3010 3013 3014 3016 3016 3016 3015 3014 3012 3008 3004 2999 2994 2989 2985 2981 2977 2972 2968 2963 2959 2954 2948 2942 2936
2929 2934 2939 2945 2951 2956 2960 2964 2969 2973 2977 2980 2983 2986 2990 2994 2998 3001 3004 3007 3009 3010 3011 3011 3010 3009 3006 3002 2998 2994 2989 2985 2981 2977 2973 2969 2965 2960 2956 2952 2947 2939 2933 2928
2926 2931 2935 2940 2946 2951 2956 2961 2965 2969 2972 2976 2981 2985 2988 2992 2995 2999 3001 3003 3005 3006 3006 3006 3004 3001 2997 2993 2989 2985 2981 2978 2974 2970 2966 2961 2957 2953 2949 2944 2939 2934 2928 2922
2924 2929 2934 2939 2944 2948 2953 2958 2962 2966 2971 2974 2978 2983 2987 2990 2993 2996 2998 2999 3000 3000 3000 2998 2997 2993 2989 2985 2981 2978 2974 2970 2966 2961 2957 2953 2949 2945 2940 2938 2934 2928 2922 2917
2925 2929 2934 2938 2941 2946 2951 2955 2960 2964 2968 2973 2978 2982 2986 2989 2991 2993 2995 2996 2996 2995 2994 2992 2989 2985 2981 2978 2974 2970 2966 2962 2958 2954 2950 2946 2942 2938 2934 2929 2925 2923 2918 2911
2922 2926 2931 2935 2939 2944 2950 2955 2960 2965 2970 2974 2978 2982 2985 2988 2989 2991 2992 2992 2991 2990 2987 2984 2981 2977 2973 2970 2966 2962 2958 2955 2951 2947 2944 2940 2936 2932 2928 2924 2918 2914 2911 2907
2922 2927 2931 2937 2942 2949 2954 2958 2963 2967 2972 2976 2980 2982 2985 2986 2988 2988 2988 2987 2986 2983 2980 2976 2972 2968 2965 2961 2958 2955 2951 2948 2944 2941 2938 2935 2931 2927 2923 2918 2914 2910 2905 2901
2924 2930 2936 2941 2946 2951 2957 2962 2967 2971 2974 2977 2980 2982 2983 2984 2984 2984 2982 2980 2978 2974 2970 2967 2964 2960 2957 2954 2951 2948 2945 2942 2939 2936 2933 2930 2926 2922 2918 2915 2911 2907 2902 2898
2934 2938 2943 2948 2952 2958 2963 2967 2970 2973 2975 2976 2978 2979 2979 2979 2978 2976 2974 2972 2969 2966 2962 2959 2956 2953 2950 2947 2944 2942 2939 2937 2935 2932 2929 2926 2922 2919 2916 2912 2909 2905 2901 2897
2941 2946 2952 2956 2959 2963 2966 2968 2970 2972 2973 2974 2974 2974 2973 2972 2971 2969 2966 2963 2961 2958 2955 2952 2949 2947 2944 2941 2939 2937 2936 2933 2931 2929 2926 2923 2920 2917 2914 2911 2907 2903 2899 2895
2950 2955 2958 2960 2962 2964 2966 2968 2969 2969 2970 2970 2970 2969 2968 2966 2964 2962 2959 2957 2954 2951 2948 2945 2943 2941 2939 2937 2935 2934 2932 2930 2929 2926 2924 2921 2918 2915 2913 2909 2906 2902 2898 2894
2956 2958 2960 2962 2963 2964 2965 2966 2967 2967 2967 2966 2965 2964 2962 2959 2956 2954 2952 2949 2946 2944 2942 2940 2939 2936 2934 2933 2932 2930 2929 2928 2926 2925 2922 2919 2917 2914 2911 2907 2903 2900 2895 2891
2958 2960 2961 2963 2963 2964 2964 2964 2963 2962 2961 2960 2958 2956 2954 2951 2949 2947 2945 2943 2941 2939 2937 2936 2934 2932 2931 2930 2929 2928 2927 2926 2924 2922 2920 2917 2914 2911 2908 2905 2901 2897 2893 2889
2959 2960 2961 2962 2961 2961 2960 2959 2958 2956 2954 2952 2950 2948 2946 2944 2942 2941 2938 2938 2936 2935 2933 2932 2930 2929 2928 2927 2926 2926 2925 2923 2921 2920 2917 2915 2912 2909 2906 2902 2899 2895 2891 2887
2959 2959 2959 2958 2957 2956 2955 2953 2951 2949 2946 2944 2942 2941 2940 2937 2936 2935 2933 2933 2932 2931 2929 2928 2928 2927 2926 2925 2924 2924 2922 2921 2919 2917 2915 2913 2910 2907 2904 2900 2897 2893 2889 2885
2956 2955 2954 2953 2952 2950 2948 2946 2944 2942 2940 2937 2935 2934 2932 2931 2930 2930 2929 2929 2928 2927 2926 2926 2925 2925 2924 2923 2923 2922 2921 2919 2917 2916 2913 2911 2908 2906 2903 2899 2896 2892 2888 2884
2953 2952 2951 2950 2948 2945 2943 2940 2936 2933 2931 2929 2927 2927 2926 2926 2925 2925 2925 2925 2925 2924 2924 2924 2923 2923 2923 2923 2922 2920 2919 2918 2916 2914 2912 2910 2908 2905 2902 2899 2895 2891 2887 2883
2950 2949 2946 2944 2941 2938 2934 2931 2929 2926 2924 2922 2921 2921 2921 2921 2921 2922 2922 2922 2922 2922 2922 2923 2923 2923 2922 2922 2921 2919 2918 2917 2915 2914 2912 2910 2908 2905 2902 2899 2895 2891 2887 2883